GW7013 Weather Reports


time (UTC)temp
C
wind
direction
speed
KPH
gust
KPH
rain 1hr
cm
rain 24hr
cm
rain mn
cm
humidity
%
barometer
mb
20260504202016 20 218 8.0 16.1 0.00 0.00 0.00 33 1006.4
20260504201033 20 228 8.0 20.9 0.00 0.00 0.00 33 1006.6
20260504200031 20 211 16.1 27.4 0.00 0.00 0.00 32 1006.6
20260504195028 20 217 9.7 17.7 0.00 0.00 0.00 33 1006.7
20260504194025 20 213 8.0 20.9 0.00 0.00 0.00 33 1006.9
20260504193022 19 215 12.9 22.5 0.00 0.00 0.00 35 1006.9
20260504192018 18 213 6.4 12.9 0.00 0.00 0.00 36 1007.0
20260504191016 18 209 11.3 20.9 0.00 0.00 0.00 35 1007.2
20260504190033 19 213 11.3 22.5 0.00 0.00 0.00 35 1007.3
20260504185029 19 230 6.4 11.3 0.00 0.00 0.00 35 1007.3
20260504184026 20 231 8.0 22.5 0.00 0.00 0.00 35 1007.3
20260504183023 19 217 11.3 27.4 0.00 0.00 0.00 36 1007.5
20260504182020 18 210 12.9 29.0 0.00 0.00 0.00 36 1007.5
20260504181037 18 219 11.3 25.7 0.00 0.00 0.00 37 1007.6
20260504180034 18 218 9.7 25.7 0.00 0.00 0.00 37 1007.6
20260504175031 18 213 12.9 24.1 0.00 0.00 0.00 37 1007.6
20260504174048 18 215 16.1 30.6 0.00 0.00 0.00 36 1007.5
20260504173024 18 212 19.3 33.8 0.00 0.00 0.00 37 1007.5
20260504172022 18 203 12.9 25.7 0.00 0.00 0.00 37 1007.7
20260504171018 17 211 14.5 24.1 0.00 0.00 0.00 38 1007.8
20260504151020 15 206 14.5 25.7 0.00 0.00 0.00 40 1009.2
20260504141022 13 204 11.3 24.1 0.00 0.00 0.00 42 1009.5
20260504081030 8 204 8.0 11.3 0.00 0.00 0.00 52 1010.3
20260504045024 6 140 0.0 1.6 0.00 0.00 0.00 70 1010.3
20260504044021 6 0.0 1.6 0.00 0.00 0.00 68 1010.4
20260504043018 6 169 0.0 1.6 0.00 0.00 0.00 68 1010.5
20260504042015 6 0.0 0.0 0.00 0.00 0.00 68 1010.6
20260504041032 6 177 0.0 3.2 0.00 0.00 0.00 68 1010.6
20260504040029 6 178 1.6 3.2 0.00 0.00 0.00 71 1010.7
20260504035028 6 345 1.6 4.8 0.00 0.00 0.00 71 1010.8
20260504034023 6 14 1.6 3.2 0.00 0.00 0.00 72 1010.9
20260504033020 5 325 1.6 4.8 0.00 0.00 0.00 71 1010.9
20260504032035 5 134 0.0 1.6 0.00 0.00 0.00 71 1011.0
20260504031032 5 0.0 0.0 0.00 0.00 0.00 71 1010.8
20260504030030 5 0.0 1.6 0.00 0.00 0.00 71 1010.9
20260504025047 6 329 0.0 3.2 0.00 0.00 0.00 70 1010.9
20260504024045 5 342 0.0 1.6 0.00 0.00 0.00 70 1011.1
20260504023021 5 323 0.0 3.2 0.00 0.00 0.00 70 1011.0
20260504022018 5 336 0.0 3.2 0.00 0.00 0.00 70 1011.0
20260504021055 5 344 0.0 1.6 0.00 0.00 0.00 71 1011.1
20260504020032 5 336 1.6 3.2 0.00 0.00 0.00 71 1011.0
20260504015028 6 0.0 1.6 0.00 0.00 0.00 69 1010.9
20260504014025 6 183 0.0 3.2 0.00 0.00 0.00 69 1010.8
20260504013022 6 0.0 1.6 0.00 0.00 0.00 68 1010.8
20260504012039 6 340 0.0 3.2 0.00 0.00 0.00 66 1011.0
20260504011016 6 193 0.0 3.2 0.00 0.00 0.00 65 1010.8
20260504010033 6 333 0.0 3.2 0.00 0.00 0.00 64 1010.6
20260504005030 6 0.0 1.6 0.00 0.00 0.00 63 1010.4
20260504004027 6 338 0.0 3.2 0.00 0.00 0.00 62 1010.2
20260504003024 7 301 0.0 3.2 0.00 0.00 0.00 60 1010.2
20260504002021 7 0.0 0.0 0.00 0.00 0.00 54 1010.1
20260504001018 8 135 0.0 1.6 0.00 0.00 0.00 52 1010.1
20260504000035 9 310 0.0 1.6 0.00 0.00 0.00 49 1010.0
20260503235033 10 147 0.0 3.2 0.00 0.00 0.00 46 1009.9
20260503234029 10 124 0.0 3.2 0.00 0.00 0.00 45 1009.9
20260503233027 10 194 1.6 6.4 0.00 0.00 0.00 45 1009.8
20260503232024 10 249 4.8 8.0 0.00 0.00 0.00 44 1009.8
20260503231021 10 281 0.0 3.2 0.00 0.00 0.00 44 1010.0
20260503230017 10 212 3.2 9.7 0.00 0.00 0.00 44 1009.9
20260503225053 10 222 4.8 12.9 0.00 0.00 0.00 45 1010.0
20260503224031 10 327 3.2 11.3 0.00 0.00 0.00 45 1010.0
20260503223027 10 213 6.4 17.7 0.00 0.00 0.00 44 1010.0
20260503222044 10 226 4.8 17.7 0.00 0.00 0.00 44 1010.2
20260503221022 10 328 4.8 14.5 0.00 0.00 0.00 43 1010.0
20260503220019 11 326 6.4 14.5 0.00 0.00 0.00 41 1010.0
20260503215036 11 237 4.8 16.1 0.00 0.00 0.00 39 1009.9
20260503214053 11 336 4.8 14.5 0.00 0.00 0.00 39 1009.7
20260503213029 11 343 6.4 14.5 0.00 0.00 0.00 38 1009.6
20260503212027 11 230 3.2 9.7 0.00 0.00 0.00 38 1009.5
20260503211023 11 224 4.8 24.1 0.00 0.00 0.00 36 1009.6
20260503210041 12 304 6.4 19.3 0.00 0.00 0.00 35 1009.6
20260503205017 11 315 4.8 9.7 0.00 0.00 0.00 35 1009.5
20260503204034 11 330 4.8 19.3 0.00 0.00 0.00 35 1009.5
20260503203052 11 320 8.0 20.9 0.00 0.00 0.00 33 1009.5